Location: Argonnex
(45.9500°N, 6.1333°E)
Time: 01:15:15
(UTC+00:00)

CZ-4 R/B - Pass Details

Date: 28 January 2023
Orbit: 526 x 587 km, 97.7° (Epoch: 24 March)

Event Time Altitude Azimuth Distance (km) Brightness Sun altitude
Rises 18:03:09 0° 146° (SE) 2,817 4.7 -15.4°
Reaches altitude 10° 18:05:25 10° 138° (SE) 1,918 3.8 -15.8°
Maximum altitude 18:09:17 38° 70° (ENE) 901 1.9 -16.5°
Drops below altitude 10° 18:13:08 10° 2° (N) 1,911 4.0 -17.1°
Sets 18:15:29 0° 355° (N) 2,849 4.9 -17.5°
